Flag for Canada Weather past 2 weeks in Cumberland County, Nova Scotia, Canada

Now
65 °F

Mild.


Feels Like: 65 °F
Forecast: 59 / 75 °F
Wind: 5 mph from Southwest

Location: Kentville

Current Time: Aug 1, 2014 at 11:45:19 PM

Latest Report: Aug 1, 2014 at 11:00 PM


Visibility: N/A

Pressure: 30.25 "Hg

Humidity: 84%

Dew point: 60 °F

Location of Cumberland CountyLocation

Historic Weather in Cumberland County — Graph

°F

Cumberland County temperature yesterday

Maximum temperature yesterday: 78 °F (at 4:00 PM)
Minimum temperature yesterday: 61 °F (at 11:00 PM)
Average temperature yesterday: 69 °F

Past Weeks' High & Low Weather Summary

 TemperatureHumidityPressure
High86 °F (Jul 23, 5:00 PM)97% (Jul 24, 1:00 PM)30.26 "Hg (Jul 24, 1:00 PM)
Low53 °F (Aug 1, 6:00 AM)34% (Jul 19, 4:00 PM)29.61 "Hg (Jul 29, 3:00 AM)
Average69 °F74%29.98 "Hg
* Reported Jul 17 10:00 PM — Aug 1 10:00 PM, Cumberland County, Weather by CustomWeather, © 2014

Note: Actual official high and low records may vary slightly from our data, if they occured in-between our weather recording intervals... More about our weather records

Advertising

Cumberland County weather history for previous 24 hours

 ConditionsComfort  
Time TempWeatherWind HumidityBarometerVisibility
10:00 PM
Aug 1
68 °FMild.3 mph80%30.24 "HgN/A
9:00 PM68 °FMild.1 mph81%30.23 "HgN/A
8:00 PM72 °FMild.2 mph69%30.22 "HgN/A
7:00 PM73 °FMild.6 mph66%30.23 "HgN/A
6:00 PM74 °FMild.3 mph67%30.22 "HgN/A
5:00 PM78 °FWarm.5 mph60%30.21 "HgN/A
4:00 PM79 °FWarm.5 mph55%30.22 "HgN/A
3:00 PM80 °FWarm.5 mph44%30.22 "HgN/A
2:00 PM78 °FWarm.3 mph43%30.23 "HgN/A
1:00 PM76 °FMild.5 mph44%30.24 "HgN/A
12:00 PM74 °FMild.5 mph52%30.24 "HgN/A
11:00 AM71 °FMild.1 mph68%30.24 "HgN/A
10:00 AM67 °FMild.2 mph73%30.24 "HgN/A
9:00 AM63 °FMild.No wind82%30.24 "HgN/A
8:00 AM58 °FCool.1 mph91%30.24 "HgN/A
7:00 AM54 °FCool.1 mph94%30.22 "HgN/A
6:00 AM53 °FCool.2 mph95%30.21 "HgN/A
5:00 AM54 °FCool.2 mph95%30.20 "HgN/A
4:00 AM55 °FCool.2 mph95%30.20 "HgN/A
3:00 AM56 °FCool.5 mph89%30.20 "HgN/A
2:00 AM57 °FCool.3 mph93%30.20 "HgN/A
1:00 AM58 °FCool.2 mph94%30.20 "HgN/A
12:00 AM61 °FCool.1 mph89%30.20 "HgN/A
11:00 PM
Jul 31
61 °FCool.3 mph94%30.20 "HgN/A
Weather by CustomWeather, © 2014

See weather overviewHow to use our weather pages